timestamp,surface_pressure_avg,surface_temp_avg,battery_voltage,lat,long
2021-10-23 00:09:01+00:00,339.4380000000001,10.59,12.73,47.84626,-54.09684
2021-10-23 00:19:01+00:00,338.7247,10.59,12.73,47.84626,-54.09684
2021-10-23 00:29:01+00:00,339.8379,10.59,12.73,47.84626,-54.09684
2021-10-23 00:39:01+00:00,342.1797,10.6,12.73,47.84626,-54.09684
2021-10-23 00:49:01+00:00,341.1847,10.6,12.73,47.84626,-54.09684
2021-10-23 00:59:01+00:00,340.338,10.6,12.73,47.84626,-54.09684
2021-10-23 01:09:01+00:00,339.278,10.58,12.73,47.84626,-54.09684
2021-10-23 01:19:01+00:00,342.5763,10.57,12.73,47.84626,-54.09684
2021-10-23 01:29:01+00:00,340.8113,10.58,12.73,47.84626,-54.09684
2021-10-23 01:39:01+00:00,339.3596,10.57,12.73,47.84626,-54.09684
2021-10-23 01:49:01+00:00,335.6913,10.57,12.73,47.84626,-54.09684
2021-10-23 01:59:01+00:00,331.4664,10.56,12.73,47.84626,-54.09684
2021-10-23 02:09:01+00:00,327.1447,10.57,12.73,47.84626,-54.09684
2021-10-23 02:19:00+00:00,321.2563,10.55,12.73,47.84626,-54.09684
2021-10-23 02:29:00+00:00,319.483,10.56,12.73,47.84626,-54.09684
2021-10-23 02:39:00+00:00,317.718,10.56,12.73,47.84626,-54.09684
2021-10-23 02:49:00+00:00,316.4263,10.56,12.73,47.84626,-54.09684
2021-10-23 02:59:00+00:00,311.3446,10.54,12.73,47.84626,-54.09684
2021-10-23 03:09:00+00:00,306.4863,10.51,12.73,47.84626,-54.09684
2021-10-23 03:19:00+00:00,303.913,10.5,12.65,47.84626,-54.09684
2021-10-23 03:29:00+00:00,304.2813,10.5,12.65,47.84626,-54.09684
2021-10-23 03:39:00+00:00,301.1946,10.5,12.65,47.84626,-54.09684
2021-10-23 03:49:00+00:00,286.9529,10.5,12.65,47.84626,-54.09684
2021-10-23 03:59:00+00:00,275.2115,10.5,12.65,47.84626,-54.09684
2021-10-23 04:09:00+00:00,272.7264,10.5,12.65,47.84626,-54.09684
2021-10-23 04:19:01+00:00,265.4014,10.5,12.65,47.84626,-54.09684
2021-10-23 04:29:01+00:00,255.3081,10.5,12.65,47.84626,-54.09684
2021-10-23 04:39:01+00:00,250.0564,10.5,12.65,47.84626,-54.09684
2021-10-23 04:49:01+00:00,245.0348,10.5,12.65,47.84626,-54.09684
2021-10-23 04:59:01+00:00,235.3148,10.5,12.65,47.84626,-54.09684
2021-10-23 05:09:01+00:00,228.8248,10.5,12.65,47.84626,-54.09684
2021-10-23 05:19:00+00:00,225.6381,10.5,12.65,47.84626,-54.09684
2021-10-23 05:29:00+00:00,223.9764,10.5,12.65,47.84626,-54.09684
2021-10-23 05:39:00+00:00,216.8198,10.5,12.65,47.84626,-54.09684
2021-10-23 05:49:00+00:00,210.8831,10.5,12.65,47.84626,-54.09684
2021-10-23 05:59:00+00:00,206.3647,10.5,12.65,47.84626,-54.09684
2021-10-23 06:09:00+00:00,204.3465,10.5,12.65,47.84626,-54.09684
2021-10-23 06:19:00+00:00,199.5731,10.5,12.65,47.84626,-54.09684
2021-10-23 06:29:00+00:00,194.9598,10.5,12.65,47.84626,-54.09684
2021-10-23 06:39:00+00:00,195.9498,10.5,12.65,47.84626,-54.09684
2021-10-23 06:49:00+00:00,195.8198,10.5,12.65,47.84626,-54.09684
2021-10-23 06:59:00+00:00,193.5731,10.5,12.65,47.84626,-54.09684
2021-10-23 07:09:00+00:00,195.1398,10.5,12.65,47.84626,-54.09684
2021-10-23 07:19:01+00:00,199.7632,10.5,12.65,47.84626,-54.09684
2021-10-23 07:29:01+00:00,204.7731,10.5,12.65,47.84626,-54.09684
2021-10-23 07:39:01+00:00,209.9297,10.5,12.65,47.84626,-54.09684
2021-10-23 07:49:01+00:00,213.4198,10.5,12.65,47.84626,-54.09684
2021-10-23 07:59:01+00:00,215.3131,10.51,12.65,47.84626,-54.09684
2021-10-23 08:09:01+00:00,221.1398,10.51,12.65,47.84626,-54.09684
2021-10-23 08:19:00+00:00,229.6714,10.5,12.65,47.84626,-54.09684
2021-10-23 08:29:00+00:00,233.0948,10.51,12.65,47.84626,-54.09684
2021-10-23 08:39:00+00:00,239.3364,10.5,12.65,47.84626,-54.09684
2021-10-23 08:49:00+00:00,250.2281,10.5,12.65,47.84626,-54.09684
2021-10-23 08:59:00+00:00,254.9798,10.5,12.65,47.84626,-54.09684
2021-10-23 09:09:00+00:00,256.2898,10.52,12.65,47.84626,-54.09684
2021-10-23 09:19:00+00:00,261.5081,10.51,12.65,47.84626,-54.09684
2021-10-23 09:29:00+00:00,267.4431,10.5,12.65,47.84626,-54.09684
2021-10-23 09:39:00+00:00,270.2914,10.52,12.65,47.84626,-54.09684
2021-10-23 09:49:00+00:00,277.0414,10.5,12.65,47.84626,-54.09684
2021-10-23 09:59:00+00:00,286.2581,10.5,12.65,47.84626,-54.09684
2021-10-23 10:09:00+00:00,289.7798,10.51,12.65,47.84626,-54.09684
2021-10-23 10:19:01+00:00,288.0797,10.5,12.65,47.84626,-54.09684
2021-10-23 10:29:01+00:00,297.388,10.5,12.65,47.84626,-54.09684
2021-10-23 10:39:01+00:00,305.153,10.51,12.65,47.84626,-54.09684
2021-10-23 10:49:01+00:00,302.70799999999997,10.5,12.65,47.84626,-54.09684
2021-10-23 10:59:01+00:00,308.4613,10.51,12.65,47.84626,-54.09684
2021-10-23 11:09:01+00:00,321.1697,10.52,12.65,47.84626,-54.09684
2021-10-23 11:19:01+00:00,328.11800000000005,10.5,12.65,47.84626,-54.09684
2021-10-23 11:29:01+00:00,325.4763,10.5,12.65,47.84626,-54.09684
2021-10-23 11:39:01+00:00,332.9797,10.5,12.65,47.84626,-54.09684
2021-10-23 11:49:01+00:00,347.2096,10.51,12.65,47.84626,-54.09684
2021-10-23 11:59:01+00:00,351.19300000000015,10.5,12.65,47.84626,-54.09684
2021-10-23 12:09:01+00:00,348.2162,10.5,12.65,47.84626,-54.09684
2021-10-23 12:19:00+00:00,353.6046,10.5,12.65,47.84626,-54.09684
2021-10-23 12:29:00+00:00,362.1462,10.5,12.65,47.84626,-54.09684
2021-10-23 12:39:00+00:00,359.2196,10.5,12.65,47.84626,-54.09684
2021-10-23 12:49:00+00:00,353.55800000000005,10.5,12.65,47.84626,-54.09684
2021-10-23 12:59:00+00:00,364.1296,10.5,12.65,47.84626,-54.09684
2021-10-23 13:09:00+00:00,371.6662,10.5,12.65,47.84626,-54.09684
2021-10-23 13:19:01+00:00,365.6979,10.5,12.73,47.84626,-54.09684
2021-10-23 13:29:01+00:00,363.2097,10.5,12.73,47.84626,-54.09684
2021-10-23 13:39:01+00:00,362.2262,10.5,12.73,47.84626,-54.09684
2021-10-23 13:49:01+00:00,358.6129,10.5,12.73,47.84626,-54.09684
2021-10-23 13:59:01+00:00,356.3612,10.5,12.73,47.84626,-54.09684
2021-10-23 14:09:01+00:00,361.5796,10.5,12.73,47.84626,-54.09684
2021-10-23 14:19:01+00:00,360.1846,10.5,12.81,47.84626,-54.09684
2021-10-23 14:29:01+00:00,345.6913,10.5,12.81,47.84626,-54.09684
2021-10-23 14:39:01+00:00,338.2530000000001,10.5,12.81,47.84626,-54.09684
2021-10-23 14:49:01+00:00,338.2463,10.5,12.81,47.84626,-54.09684
2021-10-23 14:59:01+00:00,332.8113,10.5,12.81,47.84626,-54.09684
2021-10-23 15:09:01+00:00,326.6513,10.5,12.81,47.84626,-54.09684
2021-10-23 15:19:01+00:00,326.488,10.5,12.73,47.84626,-54.09684
2021-10-23 15:29:01+00:00,321.298,10.5,12.73,47.84626,-54.09684
2021-10-23 15:39:01+00:00,313.923,10.5,12.73,47.84626,-54.09684
2021-10-23 15:49:01+00:00,308.6996,10.54,12.73,47.84626,-54.09684
2021-10-23 15:59:01+00:00,308.3313,10.52,12.73,47.84626,-54.09684
2021-10-23 16:09:01+00:00,296.0347,10.5,12.73,47.84626,-54.09684
2021-10-23 16:19:01+00:00,285.9547,10.5,12.73,47.84626,-54.09684
2021-10-23 16:29:01+00:00,279.2881,10.5,12.73,47.84626,-54.09684
2021-10-23 16:39:01+00:00,271.3831,10.5,12.73,47.84626,-54.09684
2021-10-23 16:49:01+00:00,258.7381,10.5,12.73,47.84626,-54.09684
2021-10-23 16:59:01+00:00,252.6797,10.5,12.73,47.84626,-54.09684
2021-10-23 17:09:01+00:00,247.4348,10.5,12.73,47.84626,-54.09684
2021-10-23 17:19:01+00:00,239.2048,10.5,13.21,47.84626,-54.09684
2021-10-23 17:29:01+00:00,229.6281,10.51,13.21,47.84626,-54.09684
2021-10-23 17:39:01+00:00,225.1398,10.53,13.21,47.84626,-54.09684
2021-10-23 17:49:01+00:00,218.8381,10.54,13.21,47.84626,-54.09684
2021-10-23 17:59:01+00:00,208.1615,10.55,13.21,47.84626,-54.09684
2021-10-23 18:09:01+00:00,200.1764,10.59,13.21,47.84626,-54.09684
2021-10-23 18:19:01+00:00,193.0565,10.67,13.37,47.84626,-54.09684
2021-10-23 18:29:01+00:00,185.7281,10.7,13.37,47.84626,-54.09684
2021-10-23 18:39:01+00:00,179.4581,10.7,13.37,47.84626,-54.09684
2021-10-23 18:49:01+00:00,176.3098,10.7,13.37,47.84626,-54.09684
2021-10-23 18:59:01+00:00,175.9281,10.7,13.37,47.84626,-54.09684
2021-10-23 19:09:01+00:00,174.7281,10.7,13.37,47.84626,-54.09684
2021-10-23 19:19:00+00:00,178.2731,10.7,13.05,47.84626,-54.09684
2021-10-23 19:29:00+00:00,184.1165,10.7,13.05,47.84626,-54.09684
2021-10-23 19:39:00+00:00,185.8531,10.7,13.05,47.84626,-54.09684
2021-10-23 19:49:00+00:00,188.9598,10.67,13.05,47.84626,-54.09684
2021-10-23 19:59:00+00:00,194.0365,10.6,13.05,47.84626,-54.09684
2021-10-23 20:09:00+00:00,201.3898,10.6,13.05,47.84626,-54.09684
2021-10-23 20:19:01+00:00,206.3114,10.6,12.89,47.84626,-54.09684
2021-10-23 20:29:01+00:00,208.0414,10.6,12.89,47.84626,-54.09684
2021-10-23 20:39:01+00:00,214.0848,10.6,12.89,47.84626,-54.09684
2021-10-23 20:49:01+00:00,222.4981,10.59,12.89,47.84626,-54.09684
2021-10-23 20:59:01+00:00,224.7548,10.59,12.89,47.84626,-54.09684
2021-10-23 21:09:01+00:00,229.6064,10.59,12.89,47.84626,-54.09684
2021-10-23 21:19:01+00:00,239.4597,10.58,12.81,47.84626,-54.09684
2021-10-23 21:29:01+00:00,243.4148,10.59,12.81,47.84626,-54.09684
2021-10-23 21:39:01+00:00,240.2448,10.59,12.81,47.84626,-54.09684
2021-10-23 21:49:01+00:00,245.2648,10.58,12.81,47.84626,-54.09684
2021-10-23 21:59:01+00:00,257.7248,10.58,12.81,47.84626,-54.09684
2021-10-23 22:09:01+00:00,261.5147,10.57,12.81,47.84626,-54.09684
2021-10-23 22:19:01+00:00,258.3097,10.56,12.81,47.84626,-54.09684
2021-10-23 22:29:01+00:00,262.9914,10.56,12.81,47.84626,-54.09684
2021-10-23 22:39:01+00:00,270.2647,10.56,12.81,47.84626,-54.09684
2021-10-23 22:49:01+00:00,270.4114,10.57,12.81,47.84626,-54.09684
2021-10-23 22:59:01+00:00,272.1764,10.57,12.81,47.84626,-54.09684
2021-10-23 23:09:01+00:00,282.1014,10.59,12.81,47.84626,-54.09684
2021-10-23 23:19:01+00:00,288.4847,10.6,12.73,47.84626,-54.09684
2021-10-23 23:29:01+00:00,292.0563,10.6,12.73,47.84626,-54.09684
2021-10-23 23:39:01+00:00,299.848,10.6,12.73,47.84626,-54.09684
2021-10-23 23:49:01+00:00,308.7014,10.61,12.73,47.84626,-54.09684
2021-10-23 23:59:01+00:00,309.918,10.63,12.73,47.84626,-54.09684
